Location: Hopville
(44.8032°N, 123.1329°W)
Time: 17:08:51
(UTC+00:00)

Cosmos 1464 Rocket - Pass Details

Date: 24 January 2021
Orbit: 953 x 1000 km, 82.9° (Epoch: 28 February)

Event Time Altitude Azimuth Distance (km) Brightness Sun altitude
Rises 13:17:25 0° 193° (SSW) 3,615 6.9 -25.1°
Reaches altitude 10° 13:19:54 10° 195° (SSW) 2,673 6.2 -24.7°
Maximum altitude 13:26:00 72° 279° (W) 1,006 3.8 -23.6°
Drops below altitude 10° 13:32:11 10° 4° (N) 2,705 6.3 -22.5°
Sets 13:34:43 0° 7° (N) 3,661 7.0 -22.0°
